Tracking 28920 objects as of 27-May-2024
HD Live streaming from Space Station
objects crossing your sky now

STARLINK-31267

Track STARLINK-31267 now!
10-day predictions


NORAD ID: 59468
Int'l Code: 2024-068P
Perigee: 450.9 km
Apogee: 451.5 km
Inclination: 43.0 °
Period: 93.5 minutes
Semi major axis: 6822 km
RCS: Unknown
Launch date: April 10, 2024
Source: United States (US)
Launch site: AIR FORCE EASTERN TEST RANGE (AFETR)
Your satellite tracking list
Your tracking list is empty




NASA's NSSDC Master Catalog

Two Line Element Set (TLE):
1 59468U 24068P   24147.68773343  .00001334  00000-0  39203-4 0  9993
2 59468  42.9996 146.4417 0000449 298.3577  61.7234 15.40687857  8460
Source of the keplerian elements: AFSPC